When you browse on this site, cookies collect data to enhance your experience and personalize the content and advertising you see.
Visit our Privacy Policy to learn more. By continuing to use the site, you agree to this use of cookies and data.
  • In Sweden
  • List of Countries
  • For 7 days
  • Water Temperature
  • Weather Map
  • Weather Widgets
  • user-avatar
    Login

    Hourly Weather Southglenn

    Today, 6 June, Saturday

    Time Temperature Precipitation Wind Pressure Humidity
    00:00 +21°C° 0 mm 4 mps 620 mmHg 44%
    01:00 +21°C° 0 mm 4 mps 619 mmHg 43%
    02:00 +21°C° 0 mm 4 mps 619 mmHg 42%
    03:00 +20°C° 0.1 mm 4 mps 619 mmHg 46%
    04:00 +20°C° 0.1 mm 4 mps 618 mmHg 51%
    05:00 +19°C° 0.1 mm 4 mps 618 mmHg 55%
    06:00 +21°C° 0.3 mm 5 mps 618 mmHg 53%
    07:00 +22°C° 0.3 mm 6 mps 619 mmHg 50%
    08:00 +23°C° 0.3 mm 7 mps 619 mmHg 47%
    09:00 +23°C° 0.1 mm 7 mps 618 mmHg 46%
    10:00 +23°C° 0.1 mm 7 mps 618 mmHg 45%
    11:00 +24°C° 0.1 mm 7 mps 617 mmHg 44%
    12:00 +24°C° 0.3 mm 9 mps 617 mmHg 43%
    13:00 +26°C° 0.3 mm 10 mps 617 mmHg 42%
    14:00 +27°C° 0.3 mm 12 mps 616 mmHg 41%
    15:00 +27°C° 0.7 mm 10 mps 616 mmHg 40%
    16:00 +26°C° 0.7 mm 8 mps 616 mmHg 39%
    17:00 +26°C° 0.7 mm 6 mps 616 mmHg 38%
    18:00 +23°C° 0 mm 5 mps 616 mmHg 41%
    19:00 +21°C° 0 mm 4 mps 615 mmHg 43%
    20:00 +20°C° 0 mm 3 mps 615 mmHg 46%
    21:00 +19°C° 0 mm 3 mps 615 mmHg 44%
    22:00 +18°C° 0 mm 3 mps 615 mmHg 43%
    23:00 +17°C° 0 mm 3 mps 614 mmHg 42%

    Tomorrow, 7 June, Sunday

    Time Temperature Precipitation Wind Pressure Humidity
    00:00 +16°C° 0 mm 3 mps 614 mmHg 38%
    01:00 +16°C° 0 mm 3 mps 614 mmHg 35%
    02:00 +14°C° 0 mm 3 mps 613 mmHg 31%
    03:00 +14°C° 0 mm 3 mps 613 mmHg 32%
    04:00 +14°C° 0 mm 3 mps 613 mmHg 32%
    05:00 +14°C° 0 mm 3 mps 613 mmHg 33%
    06:00 +17°C° 0 mm 3 mps 613 mmHg 29%
    07:00 +20°C° 0 mm 3 mps 614 mmHg 26%
    08:00 +24°C° 0 mm 3 mps 615 mmHg 22%
    09:00 +25°C° 0 mm 4 mps 615 mmHg 21%
    10:00 +27°C° 0 mm 5 mps 615 mmHg 19%
    11:00 +29°C° 0 mm 6 mps 615 mmHg 17%
    12:00 +30°C° 0 mm 7 mps 615 mmHg 16%
    13:00 +32°C° 0 mm 8 mps 615 mmHg 15%
    14:00 +33°C° 0 mm 10 mps 615 mmHg 15%
    15:00 +32°C° 0 mm 9 mps 614 mmHg 16%
    16:00 +32°C° 0 mm 8 mps 614 mmHg 17%
    17:00 +30°C° 0 mm 7 mps 614 mmHg 18%
    18:00 +28°C° 0 mm 7 mps 614 mmHg 20%
    19:00 +26°C° 0 mm 6 mps 614 mmHg 22%
    20:00 +22°C° 0 mm 5 mps 614 mmHg 25%
    21:00 +21°C° 0 mm 5 mps 614 mmHg 26%
    22:00 +20°C° 0 mm 4 mps 614 mmHg 27%
    23:00 +18°C° 0 mm 4 mps 614 mmHg 29%

    Day after tomorrow, 8 June, Monday

    Time Temperature Precipitation Wind Pressure Humidity
    00:00 +17°C° 0 mm 3 mps 614 mmHg 30%
    01:00 +16°C° 0 mm 3 mps 614 mmHg 31%
    02:00 +15°C° 0 mm 2 mps 614 mmHg 32%
    03:00 +14°C° 0 mm 2 mps 614 mmHg 42%
    04:00 +13°C° 0 mm 2 mps 614 mmHg 52%
    05:00 +12°C° 0 mm 2 mps 614 mmHg 62%
    06:00 +13°C° 0 mm 2 mps 615 mmHg 59%
    07:00 +13°C° 0 mm 3 mps 615 mmHg 57%
    08:00 +16°C° 0 mm 3 mps 616 mmHg 54%
    09:00 +17°C° 0 mm 4 mps 616 mmHg 49%
    10:00 +19°C° 0 mm 5 mps 617 mmHg 43%
    11:00 +21°C° 0 mm 6 mps 617 mmHg 38%
    12:00 +22°C° 0 mm 6 mps 617 mmHg 35%
    13:00 +23°C° 0 mm 6 mps 616 mmHg 32%
    14:00 +24°C° 0 mm 7 mps 616 mmHg 29%
    15:00 +24°C° 0.1 mm 7 mps 616 mmHg 30%
    16:00 +23°C° 0.1 mm 8 mps 616 mmHg 30%
    17:00 +22°C° 0.1 mm 8 mps 616 mmHg 31%
    18:00 +18°C° 0 mm 7 mps 616 mmHg 44%
    19:00 +14°C° 0 mm 6 mps 616 mmHg 57%
    20:00 +10°C° 0 mm 4 mps 616 mmHg 70%
    21:00 +10°C° 0 mm 3 mps 617 mmHg 69%
    22:00 +10°C° 0 mm 2 mps 618 mmHg 68%
    23:00 +10°C° 0 mm 2 mps 618 mmHg 67%

    9 June, Tuesday

    Time Temperature Precipitation Wind Pressure Humidity
    00:00 +10°C° 0.1 mm 2 mps 618 mmHg 63%
    01:00 +9°C° 0.1 mm 2 mps 618 mmHg 59%
    02:00 +9°C° 0.1 mm 2 mps 619 mmHg 55%
    03:00 +8°C° 0 mm 3 mps 619 mmHg 50%
    04:00 +8°C° 0 mm 3 mps 619 mmHg 45%
    05:00 +6°C° 0 mm 4 mps 619 mmHg 40%
    06:00 +9°C° 0 mm 3 mps 619 mmHg 33%
    07:00 +12°C° 0 mm 2 mps 620 mmHg 27%
    08:00 +14°C° 0 mm 1 mps 620 mmHg 20%
    09:00 +16°C° 0 mm 1 mps 620 mmHg 18%
    10:00 +18°C° 0 mm 1 mps 620 mmHg 16%
    11:00 +20°C° 0 mm 1 mps 621 mmHg 14%
    12:00 +21°C° 0 mm 1 mps 621 mmHg 13%
    13:00 +22°C° 0 mm 1 mps 621 mmHg 13%
    14:00 +24°C° 0 mm 1 mps 620 mmHg 12%
    15:00 +24°C° 0 mm 2 mps 621 mmHg 12%
    16:00 +24°C° 0 mm 3 mps 621 mmHg 13%
    17:00 +23°C° 0 mm 4 mps 621 mmHg 13%
    18:00 +21°C° 0 mm 4 mps 621 mmHg 16%
    19:00 +19°C° 0 mm 4 mps 621 mmHg 19%
    20:00 +17°C° 0 mm 4 mps 621 mmHg 22%
    21:00 +16°C° 0 mm 3 mps 621 mmHg 23%
    22:00 +14°C° 0 mm 3 mps 621 mmHg 25%
    23:00 +14°C° 0 mm 2 mps 621 mmHg 26%

    10 June, Wednesday

    Time Temperature Precipitation Wind Pressure Humidity
    00:00 +13°C° 0 mm 2 mps 621 mmHg 26%
    01:00 +13°C° 0 mm 2 mps 621 mmHg 26%
    02:00 +12°C° 0 mm 2 mps 621 mmHg 26%
    03:00 +12°C° 0 mm 2 mps 621 mmHg 27%
    04:00 +12°C° 0 mm 2 mps 621 mmHg 28%
    05:00 +10°C° 0 mm 2 mps 621 mmHg 29%
    06:00 +14°C° 0 mm 2 mps 622 mmHg 26%
    07:00 +16°C° 0 mm 1 mps 623 mmHg 23%
    08:00 +20°C° 0 mm 1 mps 624 mmHg 20%
    09:00 +22°C° 0 mm 1 mps 624 mmHg 19%
    10:00 +23°C° 0 mm 2 mps 625 mmHg 18%
    11:00 +24°C° 0 mm 2 mps 625 mmHg 16%
    12:00 +25°C° 0 mm 2 mps 625 mmHg 16%
    13:00 +26°C° 0 mm 2 mps 625 mmHg 16%
    14:00 +27°C° 0 mm 2 mps 625 mmHg 15%
    15:00 +27°C° 0 mm 2 mps 625 mmHg 16%
    16:00 +27°C° 0 mm 3 mps 625 mmHg 18%
    17:00 +27°C° 0 mm 3 mps 625 mmHg 19%
    18:00 +25°C° 0 mm 3 mps 625 mmHg 23%
    19:00 +22°C° 0 mm 3 mps 625 mmHg 27%
    20:00 +19°C° 0 mm 3 mps 624 mmHg 31%
    21:00 +18°C° 0 mm 2 mps 625 mmHg 33%
    22:00 +17°C° 0 mm 2 mps 625 mmHg 35%
    23:00 +16°C° 0 mm 2 mps 625 mmHg 38%

    11 June, Thursday

    Time Temperature Precipitation Wind Pressure Humidity
    00:00 +15°C° 0 mm 2 mps 625 mmHg 41%
    01:00 +14°C° 0 mm 2 mps 624 mmHg 44%
    02:00 +14°C° 0 mm 2 mps 624 mmHg 47%
    03:00 +13°C° 0 mm 1 mps 624 mmHg 50%
    04:00 +13°C° 0 mm 1 mps 624 mmHg 54%
    05:00 +12°C° 0 mm 1 mps 624 mmHg 58%
    06:00 +14°C° 0 mm 1 mps 624 mmHg 52%
    07:00 +16°C° 0 mm 1 mps 625 mmHg 46%
    08:00 +18°C° 0 mm 2 mps 625 mmHg 41%
    09:00 +20°C° 0 mm 2 mps 626 mmHg 37%
    10:00 +23°C° 0 mm 2 mps 626 mmHg 33%
    11:00 +24°C° 0 mm 2 mps 626 mmHg 30%
    12:00 +26°C° 0 mm 3 mps 626 mmHg 28%
    13:00 +27°C° 0 mm 3 mps 626 mmHg 26%
    14:00 +28°C° 0 mm 3 mps 626 mmHg 24%
    15:00 +28°C° 0 mm 3 mps 626 mmHg 25%
    16:00 +28°C° 0 mm 4 mps 626 mmHg 26%
    17:00 +28°C° 0 mm 4 mps 626 mmHg 27%
    18:00 +26°C° 0.2 mm 4 mps 625 mmHg 34%
    19:00 +22°C° 0.2 mm 4 mps 625 mmHg 42%
    20:00 +20°C° 0.2 mm 3 mps 625 mmHg 49%
    21:00 +19°C° 0 mm 4 mps 625 mmHg 56%
    22:00 +17°C° 0 mm 5 mps 625 mmHg 63%
    23:00 +16°C° 0 mm 6 mps 626 mmHg 70%
    Show more